TimeMST,TemperatureF,Dew PointF,Humidity,Sea Level PressureIn,VisibilityMPH,Wind Direction,Wind SpeedMPH,Gust SpeedMPH,PrecipitationIn,Events,Conditions,WindDirDegrees,DateUTC
12:10 AM,24.8,23.0,93,29.95,8.0,NW,5.8,-,0.00,Snow,Light Snow,310,2013-11-04 07:10:00
12:31 AM,24.8,23.0,93,29.96,5.0,NW,6.9,-,0.00,Snow,Light Snow,320,2013-11-04 07:31:00
12:53 AM,25.0,23.0,92,30.09,3.0,NNW,8.1,-,0.00,Snow,Light Snow,330,2013-11-04 07:53:00
1:53 AM,21.9,21.0,96,30.11,10.0,Calm,Calm,-,0.00,,Mostly Cloudy,0,2013-11-04 08:53:00
2:53 AM,21.9,21.0,96,30.12,10.0,West,3.5,-,N/A,,Overcast,270,2013-11-04 09:53:00
3:53 AM,23.0,21.0,92,30.12,10.0,South,3.5,-,N/A,,Overcast,180,2013-11-04 10:53:00
4:53 AM,19.9,19.0,96,30.13,10.0,SSW,3.5,-,N/A,,Overcast,210,2013-11-04 11:53:00
5:53 AM,21.9,21.0,96,30.14,10.0,Calm,Calm,-,N/A,,Overcast,0,2013-11-04 12:53:00
5:59 AM,21.2,21.2,100,29.98,10.0,Calm,Calm,-,N/A,,Overcast,0,2013-11-04 12:59:00
6:53 AM,23.0,21.9,96,30.14,10.0,WSW,4.6,-,N/A,,Overcast,240,2013-11-04 13:53:00
7:46 AM,24.8,21.2,86,30.00,10.0,Calm,Calm,-,N/A,,Overcast,0,2013-11-04 14:46:00
7:53 AM,24.1,21.9,91,30.16,10.0,Calm,Calm,-,N/A,,Overcast,0,2013-11-04 14:53:00
8:02 AM,24.8,21.2,86,30.00,10.0,Calm,Calm,-,N/A,,Overcast,0,2013-11-04 15:02:00
8:53 AM,25.0,23.0,92,30.16,10.0,Calm,Calm,-,N/A,,Overcast,0,2013-11-04 15:53:00
9:05 AM,24.8,24.8,100,30.01,9.0,ENE,3.5,-,N/A,,Overcast,70,2013-11-04 16:05:00
9:26 AM,26.6,24.8,93,30.01,10.0,East,3.5,-,N/A,,Overcast,90,2013-11-04 16:26:00
9:53 AM,25.0,21.9,88,30.17,10.0,East,5.8,-,N/A,,Overcast,100,2013-11-04 16:53:00
10:22 AM,24.8,23.0,93,30.01,10.0,ESE,5.8,-,N/A,,Overcast,120,2013-11-04 17:22:00
10:32 AM,26.6,21.2,80,30.01,10.0,ESE,4.6,-,N/A,,Overcast,120,2013-11-04 17:32:00
10:53 AM,27.0,21.9,81,30.16,10.0,ENE,3.5,-,N/A,,Overcast,70,2013-11-04 17:53:00
11:53 AM,28.0,21.0,75,30.15,10.0,Calm,Calm,-,N/A,,Overcast,0,2013-11-04 18:53:00
12:53 PM,28.0,19.9,72,30.15,10.0,Calm,Calm,-,N/A,,Overcast,0,2013-11-04 19:53:00
1:53 PM,28.0,23.0,81,30.16,10.0,North,4.6,-,N/A,,Overcast,360,2013-11-04 20:53:00
2:53 PM,28.9,21.9,75,30.16,10.0,NNE,4.6,-,N/A,,Overcast,30,2013-11-04 21:53:00
3:53 PM,28.9,21.0,72,30.17,10.0,Calm,Calm,-,N/A,,Overcast,0,2013-11-04 22:53:00
4:53 PM,27.0,19.0,72,30.17,10.0,Calm,Calm,-,N/A,,Mostly Cloudy,0,2013-11-04 23:53:00
5:05 PM,26.6,19.4,74,30.01,10.0,Calm,Calm,-,N/A,,Partly Cloudy,0,2013-11-05 00:05:00
5:53 PM,23.0,19.9,88,30.19,10.0,South,3.5,-,N/A,,Clear,180,2013-11-05 00:53:00
6:53 PM,23.0,19.9,88,30.20,10.0,SE,3.5,-,N/A,,Partly Cloudy,140,2013-11-05 01:53:00
7:53 PM,21.0,18.0,88,30.20,10.0,SSE,4.6,-,N/A,,Clear,160,2013-11-05 02:53:00
8:53 PM,19.0,17.1,92,30.21,10.0,SSW,5.8,-,N/A,,Clear,200,2013-11-05 03:53:00
9:53 PM,19.0,17.1,92,30.21,10.0,South,4.6,-,N/A,,Clear,180,2013-11-05 04:53:00
10:53 PM,18.0,15.1,88,30.20,10.0,SW,8.1,-,N/A,,Clear,220,2013-11-05 05:53:00
11:53 PM,19.9,17.1,89,30.19,10.0,SSW,8.1,-,N/A,,Clear,200,2013-11-05 06:53:00